Content
SEND FEEDBACK

Daily
Averages
Monthly
Summary
Brazil

MACAE, RIO DE JANEIRO


Home > South America > Brazil > Rio De Janeiro
Elevation: 7 feet     Latitude: 22 21S     Longitude: 041 46W

WEATHER
 
SELECT A DAY
Number of Records: 101,672;   Date Range: 6/30/96 - 9/29/14
 
SHARE

PRINT THIS DATA

[ ← Previous Day ]
WEATHER ALMANAC - SEPTEMBER 22, 2013
[ Next Day → ]
[ °C ]   °F
Weather ElementAverageHighLow
Temperature76.8 °F87.8 °F (8:00 am)69.8 °F (4:00 am)
Dewpoint69.9 °F71.6 °F (8:00 am)68 °F (1:00 am)
Humidity80.3 %94 % (4:00 am)58 % (8:00 am)
Barometer29.89 in29.95 in (9:00 am)29.80 in (3:00 am)
Wind Speed6.1 mph10.4 mph (1:00 am)
Weather ElementAverage
Visibility5.3 mi
Wind DirectionSSE (142.2 °)

Weather ElementTotal
Precipitation---
Cooling Degree Days13.8 (Base 65)
Growing Degree Days28.8 (Base 50)
Averaged from 23 records on September 22, 2013
WEATHER CONDITIONS BREAKOUT
WIND DIRECTION BREAKOUT
WEATHER BY HOUR - SEPTEMBER 22, 2013
[ °C ]   °F
Local TimeTemperatureDewpointHumidityBarometerVisibilityWind DirectionWind SpeedGust SpeedPrecipitationEventsConditions
1:00 AM71.6 °F68.0 °F88 %29.83 inNE (40°)10.4 mphClear
2:00 AM71.6 °F68.0 °F88 %29.83 inNNE (30°)8.1 mphClear
3:00 AM71.6 °F68.0 °F88 %29.80 inNE (40°)9.2 mphClear
4:00 AM69.8 °F68.0 °F94 %29.80 inNE (40°)8.1 mphClear
5:00 AM69.8 °F68.0 °F94 %29.83 inNE (40°)6.9 mphClear
6:00 AM71.6 °F68.0 °F88 %29.83 inNNE (30°)5.8 mphClear
7:00 AM77.0 °F69.8 °F78 %29.86 inNE (40°)5.8 mphClear
8:00 AM87.8 °F71.6 °F58 %29.92 inWSW (250°)2.3 mphClear
9:00 AM77.0 °F71.6 °F83 %29.95 in6.2 miSSW (210°)10.4 mphOvercast
10:00 AM86.0 °F71.6 °F62 %29.95 in6.2 miSouth (190°)9.2 mphOvercast
11:00 AM84.2 °F71.6 °F66 %29.95 in6.2 miSouth (180°)9.2 mphMostly Cloudy
12:00 PM84.2 °F71.6 °F66 %29.92 in6.2 miSSE (160°)8.1 mphMostly Cloudy
1:00 PM87.8 °F71.6 °F58 %29.89 inSouth (170°)6.9 mphClear
2:00 PM87.8 °F71.6 °F58 %29.89 inSouth (170°)8.1 mphClear
3:00 PM84.2 °F71.6 °F66 %29.89 inSouth (170°)6.9 mphClear
4:00 PM82.4 °F71.6 °F70 %29.89 inSSE (150°)5.8 mphClear
5:00 PM77.0 °F69.8 °F78 %29.89 inSE (140°)3.5 mphClear
6:00 PM71.6 °F69.8 °F94 %29.89 inWSW (240°)1.2 mphClear
7:00 PM71.6 °F69.8 °F94 %29.92 inSSW (200°)1.2 mphClear
8:00 PM69.8 °F68.0 °F94 %29.92 in4.3 miNW (310°)1.2 mph
9:00 PM69.8 °F68.0 °F94 %29.92 in4.3 miNorth (360°)1.2 mph
10:00 PM71.6 °F69.8 °F94 %29.92 in4.3 miNE (50°)5.8 mph
11:00 PM71.6 °F69.8 °F94 %29.92 in4.3 miENE (60°)4.6 mph
Hourly data recorded from SBME, located miles away from Macae, Rio De Janeiro







STORIES FROM OUR PARTNERS